Weather History for Henderson, KY

Change the Weather History Date:

Tuesday, February 5, 2013

  Actual Average Record
Temperature  
Mean Temperature 40 °F -  
Max Temperature 51 °F 43 °F 71 °F (2008)
Min Temperature 28 °F 24 °F 0 °F (1966)
Degree Days  
Heating Degree Days 26    
Moisture  
Dew Point 27 °F    
Average Humidity 62    
Maximum Humidity 75    
Minimum Humidity 50    
Precipitation  
Precipitation 0.00 in - - ()
Sea Level Pressure  
Sea Level Pressure 29.97 in    
Wind  
Wind Speed 6 mph (West)    
Max Wind Speed 16 mph    
Max Gust Speed 16 mph    
Visibility 10 miles    
Events      
Averages and records for this station are not official NWS values.
T = Trace of Precipitation, MM = Missing Value Source: NWS Daily Summary

Daily Weather History Graph

Daily Weather History Graph

Search for Another Location

Airport:

Trip Planner

Search our weather history database for the weather conditions in past years. The results will help you decide how hot, cold, wet, or windy it might be!

Date:

Astronomy

Feb. 05, 2013 Rise Set
Actual Time 6:50 AM CST 5:19 PM CST
Civil Twilight 6:23 AM CST 5:46 PM CST
Nautical Twilight 5:52 AM CST 6:17 PM CST
Astronomical Twilight 5:21 AM CST 6:48 PM CST
Moon 2:30 AM CST (2/5) 12:38 PM CST (2/5)
Length of Visible Light 11h 22m
Length of Day
10h 28m
Waning Crescent, 26% of the Moon is Illuminated
Feb 5
Waning Crescent
Feb 10
New
Feb 17
First Quarter
Feb 25
Full
Mar 4
Last Quarter

Hourly Weather History & Observations

Time (CST) Temp. Windchill Dew Point Humidity Pressure Visibility Wind Dir Wind Speed Gust Speed Precip Events Conditions
12:15 AM 39.2 °F 34.2 °F 30.2 °F 70% 29.92 in 10.0 mi WNW 6.9 mph - N/A   Overcast
12:35 AM 37.4 °F 33.8 °F 30.2 °F 75% 29.92 in 10.0 mi NNW 4.6 mph - N/A   Overcast
12:55 AM 37.4 °F 33.8 °F 28.4 °F 70% 29.92 in 10.0 mi NNW 4.6 mph - N/A   Overcast
1:15 AM 37.4 °F 32.1 °F 26.6 °F 65% 29.93 in 10.0 mi NNW 6.9 mph - N/A   Overcast
1:35 AM 35.6 °F 29.9 °F 26.6 °F 70% 29.93 in 10.0 mi NW 6.9 mph - N/A   Overcast
1:55 AM 35.6 °F 29.2 °F 24.8 °F 65% 29.94 in 10.0 mi NNW 8.1 mph - N/A   Overcast
2:15 AM 35.6 °F 28.6 °F 24.8 °F 65% 29.94 in 10.0 mi NNW 9.2 mph - N/A   Overcast
2:55 AM 33.8 °F 27.7 °F 23.0 °F 65% 29.94 in 10.0 mi NNW 6.9 mph - N/A   Overcast
3:35 AM 33.8 °F 28.6 °F 23.0 °F 65% 29.94 in 10.0 mi NNW 5.8 mph - N/A   Overcast
3:55 AM 32.0 °F - 21.2 °F 64% 29.94 in 10.0 mi Calm Calm - N/A   Mostly Cloudy
4:35 AM 30.2 °F 26.7 °F 21.2 °F 69% 29.94 in 10.0 mi NW 3.5 mph - N/A   Clear
4:55 AM 30.2 °F 24.3 °F 21.2 °F 69% 29.95 in 10.0 mi NNW 5.8 mph - N/A   Clear
5:15 AM 30.2 °F 26.7 °F 21.2 °F 69% 29.95 in 10.0 mi North 3.5 mph - N/A   Clear
6:15 AM 28.4 °F - 19.4 °F 69% 29.97 in 10.0 mi Calm Calm - N/A   Clear
6:35 AM 28.4 °F - 19.4 °F 69% 29.98 in 10.0 mi Calm Calm - N/A   Clear
6:55 AM 28.4 °F - 19.4 °F 69% 29.98 in 8.0 mi Calm Calm - N/A   Clear
7:15 AM 28.4 °F - 19.4 °F 69% 29.98 in 8.0 mi Calm Calm - N/A   Clear
7:35 AM 30.2 °F 25.4 °F 19.4 °F 64% 30.00 in 5.0 mi WSW 4.6 mph - N/A   Partly Cloudy
7:55 AM 30.2 °F 26.7 °F 21.2 °F 69% 30.01 in 8.0 mi WNW 3.5 mph - N/A   Scattered Clouds
8:15 AM 32.0 °F 28.7 °F 21.2 °F 64% 30.01 in 10.0 mi West 3.5 mph - N/A   Clear
8:35 AM 32.0 °F - 21.2 °F 64% 30.01 in 10.0 mi Calm Calm - N/A   Clear
8:55 AM 33.8 °F - 21.2 °F 60% 30.01 in 10.0 mi Calm Calm - N/A   Partly Cloudy
9:15 AM 33.8 °F - 21.2 °F 60% 30.00 in 10.0 mi Calm Calm - N/A   Overcast
9:35 AM 33.8 °F 29.6 °F 23.0 °F 65% 30.01 in 10.0 mi South 4.6 mph - N/A   Scattered Clouds
9:55 AM 35.6 °F 29.9 °F 24.8 °F 65% 30.01 in 10.0 mi South 6.9 mph - N/A   Clear
10:35 AM 37.4 °F 29.8 °F 26.6 °F 65% 30.00 in 10.0 mi SSW 11.5 mph - N/A   Clear
10:55 AM 39.2 °F 33.0 °F 28.4 °F 65% 29.99 in 10.0 mi SSW 9.2 mph - N/A   Clear
11:15 AM 42.8 °F 38.0 °F 30.2 °F 61% 29.98 in 10.0 mi SSW 8.1 mph - N/A   Clear
11:35 AM 42.8 °F 36.2 °F 30.2 °F 61% 29.97 in 10.0 mi SSW 12.7 mph - N/A   Clear
11:55 AM 44.6 °F 38.4 °F 30.2 °F 57% 29.96 in 10.0 mi SW 12.7 mph - N/A   Clear
12:15 PM 44.6 °F 38.4 °F 33.8 °F 66% 29.95 in 10.0 mi SSW 12.7 mph - N/A   Clear
12:35 PM 46.4 °F 41.5 °F 33.8 °F 62% 29.94 in 10.0 mi SW 10.4 mph - N/A   Clear
12:55 PM 46.4 °F 40.7 °F 33.8 °F 62% 29.93 in 10.0 mi SW 12.7 mph - N/A   Clear
1:15 PM 48.2 °F - 33.8 °F 58% 29.93 in 10.0 mi SW 12.7 mph - N/A   Clear
1:35 PM 48.2 °F - 35.6 °F 62% 29.93 in 10.0 mi SW 11.5 mph 16.1 mph N/A   Clear
1:55 PM 50.0 °F - 33.8 °F 54% 29.93 in 10.0 mi WSW 16.1 mph - N/A   Clear
2:15 PM 51.8 °F - 33.8 °F 50% 29.92 in 10.0 mi WSW 16.1 mph - N/A   Clear
2:55 PM 51.8 °F - 33.8 °F 50% 29.92 in 10.0 mi SW 13.8 mph - N/A   Clear
3:15 PM 51.8 °F - 33.8 °F 50% 29.92 in 10.0 mi WSW 13.8 mph - N/A   Clear
3:35 PM 51.8 °F - 33.8 °F 50% 29.92 in 10.0 mi WSW 10.4 mph - N/A   Clear
3:55 PM 51.8 °F - 33.8 °F 50% 29.92 in 10.0 mi SW 13.8 mph - N/A   Clear
4:35 PM 51.8 °F - 33.8 °F 50% 29.93 in 10.0 mi WSW 11.5 mph - N/A   Clear
4:55 PM 48.2 °F - 33.8 °F 58% 29.94 in 10.0 mi WSW 8.1 mph - N/A   Clear
5:15 PM 46.4 °F 42.4 °F 33.8 °F 62% 29.94 in 10.0 mi SW 8.1 mph - N/A   Clear
5:35 PM 44.6 °F 40.2 °F 30.2 °F 57% 29.94 in 10.0 mi SW 8.1 mph - N/A   Clear
5:55 PM 42.8 °F 38.0 °F 30.2 °F 61% 29.95 in 10.0 mi SW 8.1 mph - N/A   Clear
6:15 PM 42.8 °F 38.0 °F 30.2 °F 61% 29.96 in 10.0 mi SW 8.1 mph - N/A   Clear
6:35 PM 42.8 °F 39.3 °F 28.4 °F 57% 29.96 in 10.0 mi SW 5.8 mph - N/A   Clear
7:15 PM 39.2 °F 37.0 °F 26.6 °F 61% 29.98 in 10.0 mi SW 3.5 mph - N/A   Clear
7:35 PM 39.2 °F 37.0 °F 26.6 °F 61% 29.99 in 10.0 mi WSW 3.5 mph - N/A   Clear
7:55 PM 41.0 °F 38.0 °F 26.6 °F 57% 30.00 in 10.0 mi WSW 4.6 mph - N/A   Clear
8:15 PM 39.2 °F 34.2 °F 28.4 °F 65% 30.01 in 10.0 mi WNW 6.9 mph - N/A   Clear
8:35 PM 39.2 °F 35.9 °F 26.6 °F 61% 30.02 in 10.0 mi NW 4.6 mph - N/A   Clear
9:15 PM 37.4 °F 33.8 °F 26.6 °F 65% 30.04 in 10.0 mi WNW 4.6 mph - N/A   Clear
9:35 PM 39.2 °F 35.0 °F 28.4 °F 65% 30.05 in 10.0 mi NW 5.8 mph - N/A   Clear
10:15 PM 42.8 °F 39.3 °F 28.4 °F 57% 30.07 in 10.0 mi NNW 5.8 mph - N/A   Clear
10:35 PM 41.0 °F 37.1 °F 26.6 °F 57% 30.08 in 10.0 mi NW 5.8 mph - N/A   Clear
10:55 PM 41.0 °F 37.1 °F 26.6 °F 57% 30.08 in 10.0 mi NNW 5.8 mph - N/A   Clear
11:15 PM 41.0 °F 39.0 °F 26.6 °F 57% 30.09 in 10.0 mi North 3.5 mph - N/A   Clear
11:35 PM 39.2 °F 35.9 °F 26.6 °F 61% 30.09 in 10.0 mi North 4.6 mph - N/A   Clear
11:55 PM 39.2 °F 35.0 °F 26.6 °F 61% 30.10 in 10.0 mi NNW 5.8 mph - N/A   Clear